QPF
0.00 0.01 0.02 0.01 0.00 0.00 0.00 0.00 0.01 0.01 0.01 0.01 0.01 0.01 0.01 0.01 0.01 0.01 0.01 0.01 0.01 0.01 0.02 0.01 0.01 0.01 0.01 0.01 0.01 0.01 0.01 0.01 0.01 0.01 0.01 0.01 0.01 0.01 0.01 0.00 0.01 0.02 0.02
0.00 0.01 0.01 0.01 0.00 0.00 0.00 0.00 0.01 0.01 0.01 0.01 0.01 0.01 0.01 0.01 0.01 0.01 0.01 0.01 0.01 0.01 0.01 0.01 0.01 0.01 0.01 0.01 0.00 0.00 0.00 0.00 0.00 0.00 0.00 0.00 0.01 0.01 0.00 0.00 0.01 0.01 0.01
0.00 0.01 0.01 0.01 0.00 0.00 0.00 0.00 0.00 0.01 0.01 0.01 0.02 0.02 0.01 0.01 0.01 0.01 0.02 0.02 0.01 0.01 0.01 0.01 0.01 0.01 0.00 0.00 0.00 0.00 0.00 0.00 0.00 0.00 0.00 0.00 0.01 0.01 0.01 0.01 0.01 0.01 0.01
0.00 0.01 0.01 0.01 0.00 0.00 0.00 0.00 0.00 0.01 0.01 0.02 0.02 0.01 0.02 0.02 0.02 0.02 0.02 0.02 0.01 0.01 0.01 0.00 0.00 0.00 0.00 0.00 0.00 0.00 0.00 0.00 0.00 0.00 0.00 0.00 0.00 0.01 0.01 0.01 0.01 0.01 0.01
0.00 0.01 0.01 0.01 0.00 0.00 0.00 0.00 0.00 0.01 0.02 0.02 0.02 0.01 0.02 0.02 0.02 0.03 0.02 0.01 0.01 0.00 0.00 0.00 0.00 0.00 0.00 0.00 0.00 0.00 0.00 0.00 0.00 0.00 0.00 0.00 0.00 0.01 0.01 0.00 0.00 0.00 0.01
0.01 0.01 0.01 0.01 0.00 0.00 0.00 0.00 0.00 0.01 0.02 0.02 0.01 0.01 0.02 0.02 0.03 0.02 0.01 0.01 0.00 0.00 0.00 0.00 0.00 0.00 0.00 0.00 0.00 0.00 0.00 0.00 0.00 0.00 0.00 0.00 0.00 0.00 0.00 0.00 0.00 0.00 0.00
0.02 0.02 0.02 0.01 0.00 0.00 0.00 0.00 0.00 0.01 0.02 0.02 0.02 0.02 0.02 0.02 0.02 0.01 0.00 0.00 0.00 0.00 0.00 0.00 0.00 0.00 0.00 0.00 0.00 0.00 0.00 0.00 0.00 0.00 0.00 0.00 0.00 0.00 0.00 0.00 0.00 0.00 0.00
0.03 0.02 0.02 0.01 0.01 0.00 0.00 0.00 0.01 0.01 0.02 0.02 0.02 0.02 0.02 0.02 0.01 0.01 0.00 0.00 0.00 0.00 0.00 0.00 0.00 0.00 0.00 0.00 0.00 0.00 0.00 0.00 0.00 0.00 0.00 0.00 0.00 0.00 0.00 0.00 0.00 0.00 0.00
0.05 0.03 0.03 0.02 0.01 0.01 0.01 0.01 0.01 0.01 0.02 0.02 0.02 0.02 0.01 0.01 0.01 0.00 0.00 0.00 0.00 0.00 0.00 0.00 0.00 0.00 0.00 0.00 0.00 0.00 0.00 0.00 0.00 0.00 0.00 0.00 0.00 0.00 0.00 0.00 0.00 0.00 0.00
0.09 0.05 0.03 0.03 0.02 0.01 0.01 0.01 0.01 0.01 0.01 0.02 0.02 0.01 0.01 0.00 0.00 0.00 0.00 0.00 0.00 0.00 0.00 0.00 0.00 0.00 0.00 0.00 0.00 0.00 0.00 0.00 0.00 0.00 0.00 0.00 0.00 0.00 0.00 0.00 0.00 0.00 0.00
0.17 0.10 0.06 0.04 0.02 0.01 0.01 0.01 0.01 0.01 0.02 0.02 0.01 0.01 0.01 0.01 0.01 0.00 0.00 0.00 0.00 0.00 0.00 0.00 0.00 0.00 0.00 0.00 0.00 0.00 0.00 0.00 0.00 0.00 0.00 0.00 0.00 0.00 0.00 0.00 0.00 0.00 0.00
0.18 0.13 0.08 0.05 0.03 0.02 0.01 0.01 0.02 0.02 0.02 0.02 0.01 0.01 0.01 0.01 0.00 0.00 0.00 0.00 0.00 0.00 0.00 0.00 0.00 0.00 0.00 0.00 0.00 0.00 0.00 0.00 0.00 0.00 0.00 0.00 0.00 0.00 0.00 0.00 0.00 0.00 0.00
0.22 0.15 0.10 0.06 0.04 0.03 0.01 0.01 0.02 0.01 0.01 0.01 0.01 0.00 0.00 0.00 0.00 0.00 0.01 0.00 0.00 0.00 0.00 0.00 0.00 0.00 0.00 0.00 0.00 0.00 0.00 0.00 0.00 0.00 0.00 0.00 0.00 0.00 0.00 0.00 0.00 0.00 0.00
0.28 0.20 0.12 0.08 0.06 0.04 0.02 0.01 0.01 0.01 0.01 0.01 0.00 0.00 0.00 0.00 0.00 0.00 0.00 0.00 0.00 0.00 0.00 0.00 0.00 0.00 0.00 0.00 0.00 0.00 0.00 0.00 0.00 0.00 0.00 0.00 0.00 0.00 0.00 0.00 0.00 0.00 0.01
0.32 0.22 0.16 0.11 0.08 0.05 0.03 0.01 0.01 0.00 0.00 0.00 0.00 0.00 0.00 0.00 0.00 0.00 0.00 0.00 0.00 0.00 0.00 0.00 0.00 0.00 0.00 0.00 0.00 0.00 0.00 0.00 0.00 0.00 0.00 0.00 0.00 0.00 0.00 0.00 0.01 0.01 0.01
0.35 0.27 0.19 0.14 0.11 0.08 0.05 0.02 0.00 0.01 0.00 0.00 0.00 0.00 0.00 0.00 0.00 0.00 0.00 0.00 0.00 0.00 0.00 0.00 0.00 0.00 0.00 0.00 0.00 0.00 0.00 0.00 0.00 0.00 0.00 0.00 0.00 0.00 0.00 0.00 0.00 0.01 0.01
0.37 0.31 0.23 0.17 0.13 0.11 0.07 0.03 0.01 0.01 0.00 0.00 0.00 0.00 0.00 0.00 0.00 0.00 0.00 0.00 0.00 0.00 0.00 0.00 0.00 0.00 0.00 0.00 0.00 0.00 0.00 0.00 0.00 0.00 0.00 0.00 0.00 0.00 0.00 0.00 0.01 0.01 0.01
0.44 0.33 0.26 0.20 0.15 0.12 0.09 0.05 0.02 0.01 0.01 0.00 0.00 0.00 0.00 0.00 0.00 0.00 0.00 0.00 0.01 0.00 0.00 0.00 0.00 0.00 0.00 0.00 0.00 0.00 0.00 0.00 0.00 0.00 0.00 0.00 0.00 0.00 0.00 0.00 0.00 0.01 0.01
0.45 0.42 0.37 0.26 0.19 0.16 0.12 0.07 0.04 0.02 0.01 0.00 0.00 0.00 0.01 0.01 0.00 0.01 0.00 0.00 0.01 0.01 0.01 0.01 0.00 0.00 0.00 0.00 0.00 0.00 0.00 0.00 0.00 0.00 0.00 0.00 0.00 0.00 0.00 0.00 0.00 0.00 0.00
0.40 0.40 0.42 0.40 0.28 0.24 0.22 0.16 0.09 0.04 0.02 0.01 0.02 0.01 0.01 0.01 0.01 0.02 0.01 0.01 0.02 0.01 0.01 0.01 0.00 0.00 0.00 0.00 0.00 0.00 0.00 0.00 0.00 0.00 0.00 0.00 0.00 0.00 0.00 0.00 0.00 0.00 0.00
0.38 0.36 0.35 0.39 0.38 0.33 0.27 0.21 0.14 0.07 0.04 0.04 0.04 0.03 0.03 0.03 0.04 0.04 0.04 0.04 0.04 0.03 0.02 0.02 0.02 0.02 0.01 0.01 0.00 0.00 0.00 0.00 0.00 0.00 0.00 0.00 0.00 0.00 0.00 0.00 0.00 0.00 0.00
0.34 0.32 0.31 0.31 0.36 0.35 0.30 0.27 0.19 0.12 0.08 0.07 0.06 0.06 0.06 0.07 0.07 0.08 0.07 0.07 0.06 0.04 0.04 0.05 0.04 0.03 0.01 0.01 0.01 0.01 0.00 0.00 0.00 0.00 0.00 0.00 0.00 0.00 0.00 0.01 0.00 0.00 0.00
0.25 0.32 0.31 0.26 0.27 0.34 0.35 0.34 0.34 0.24 0.14 0.09 0.08 0.10 0.11 0.12 0.11 0.09 0.07 0.07 0.07 0.06 0.06 0.06 0.05 0.03 0.03 0.02 0.02 0.01 0.01 0.01 0.01 0.00 0.00 0.00 0.00 0.00 0.00 0.00 0.00 0.00 0.00
0.17 0.23 0.32 0.31 0.27 0.32 0.43 0.43 0.41 0.35 0.22 0.14 0.13 0.13 0.14 0.14 0.12 0.11 0.09 0.09 0.08 0.08 0.07 0.07 0.06 0.05 0.04 0.03 0.02 0.02 0.02 0.02 0.02 0.01 0.01 0.00 0.00 0.00 0.00 0.00 0.00 0.00 0.00
0.13 0.16 0.23 0.31 0.32 0.30 0.31 0.35 0.38 0.38 0.30 0.26 0.22 0.17 0.15 0.13 0.12 0.12 0.12 0.11 0.11 0.11 0.11 0.10 0.08 0.07 0.06 0.05 0.04 0.03 0.02 0.02 0.02 0.02 0.01 0.01 0.01 0.01 0.01 0.01 0.01 0.01 0.01
0.08 0.11 0.15 0.21 0.27 0.29 0.26 0.26 0.28 0.29 0.30 0.26 0.22 0.20 0.18 0.17 0.16 0.16 0.18 0.18 0.17 0.15 0.14 0.14 0.12 0.12 0.11 0.09 0.07 0.05 0.03 0.03 0.03 0.02 0.02 0.02 0.01 0.01 0.01 0.01 0.01 0.01 0.01
MSLP
1009.79 1010.10 1010.59 1011.20 1011.82 1012.38 1012.80 1013.07 1013.22 1013.30 1013.39 1013.55 1013.83 1014.23 1014.72 1015.23 1015.71 1016.11 1016.39 1016.58 1016.70 1016.79 1016.90 1017.05 1017.24 1017.46 1017.67 1017.85 1017.96 1018.00 1017.98 1017.93 1017.88 1017.87 1017.89 1017.96 1018.05 1018.15 1018.21 1018.22 1018.18 1018.09 1017.97
1009.29 1009.69 1010.27 1010.97 1011.68 1012.31 1012.79 1013.10 1013.27 1013.36 1013.46 1013.63 1013.92 1014.34 1014.84 1015.37 1015.87 1016.28 1016.59 1016.79 1016.93 1017.05 1017.19 1017.36 1017.58 1017.83 1018.06 1018.25 1018.37 1018.42 1018.41 1018.37 1018.34 1018.34 1018.39 1018.48 1018.59 1018.70 1018.76 1018.77 1018.73 1018.63 1018.50
1008.76 1009.25 1009.93 1010.72 1011.52 1012.22 1012.76 1013.13 1013.34 1013.46 1013.58 1013.77 1014.07 1014.49 1014.99 1015.52 1016.01 1016.43 1016.74 1016.97 1017.13 1017.28 1017.45 1017.67 1017.92 1018.20 1018.45 1018.65 1018.77 1018.83 1018.82 1018.79 1018.76 1018.78 1018.85 1018.95 1019.08 1019.20 1019.27 1019.29 1019.25 1019.15 1019.03
1008.31 1008.88 1009.65 1010.53 1011.40 1012.16 1012.75 1013.16 1013.42 1013.58 1013.73 1013.94 1014.26 1014.67 1015.16 1015.67 1016.15 1016.56 1016.87 1017.12 1017.31 1017.50 1017.72 1017.98 1018.27 1018.57 1018.84 1019.04 1019.16 1019.20 1019.19 1019.16 1019.14 1019.16 1019.24 1019.36 1019.50 1019.63 1019.71 1019.74 1019.71 1019.63 1019.52
1008.01 1008.67 1009.51 1010.45 1011.36 1012.15 1012.78 1013.22 1013.51 1013.71 1013.90 1014.14 1014.47 1014.88 1015.36 1015.85 1016.31 1016.70 1017.01 1017.27 1017.51 1017.75 1018.02 1018.32 1018.65 1018.97 1019.24 1019.43 1019.54 1019.56 1019.54 1019.49 1019.47 1019.50 1019.58 1019.70 1019.85 1019.98 1020.07 1020.12 1020.10 1020.04 1019.96
1007.92 1008.66 1009.55 1010.50 1011.42 1012.21 1012.83 1013.28 1013.59 1013.82 1014.05 1014.33 1014.68 1015.11 1015.57 1016.05 1016.48 1016.87 1017.19 1017.47 1017.75 1018.03 1018.36 1018.71 1019.07 1019.39 1019.66 1019.83 1019.91 1019.91 1019.86 1019.80 1019.77 1019.79 1019.87 1020.00 1020.15 1020.28 1020.39 1020.44 1020.45 1020.41 1020.36
1008.06 1008.83 1009.74 1010.68 1011.56 1012.31 1012.90 1013.33 1013.65 1013.92 1014.19 1014.51 1014.90 1015.34 1015.81 1016.28 1016.71 1017.08 1017.42 1017.73 1018.04 1018.38 1018.75 1019.14 1019.52 1019.84 1020.09 1020.24 1020.29 1020.26 1020.18 1020.11 1020.07 1020.09 1020.17 1020.29 1020.44 1020.58 1020.68 1020.75 1020.77 1020.75 1020.72
1008.36 1009.15 1010.04 1010.93 1011.74 1012.42 1012.95 1013.36 1013.68 1013.98 1014.30 1014.67 1015.11 1015.58 1016.07 1016.54 1016.97 1017.36 1017.71 1018.05 1018.40 1018.78 1019.19 1019.60 1019.98 1020.30 1020.52 1020.63 1020.64 1020.58 1020.49 1020.41 1020.36 1020.39 1020.47 1020.60 1020.75 1020.89 1020.99 1021.06 1021.09 1021.09 1021.07
1008.72 1009.51 1010.36 1011.18 1011.90 1012.50 1012.97 1013.34 1013.67 1014.01 1014.39 1014.83 1015.32 1015.84 1016.35 1016.84 1017.27 1017.67 1018.03 1018.40 1018.78 1019.19 1019.62 1020.03 1020.41 1020.70 1020.89 1020.97 1020.95 1020.87 1020.77 1020.69 1020.66 1020.70 1020.80 1020.94 1021.09 1021.23 1021.34 1021.41 1021.44 1021.45 1021.43
1009.03 1009.81 1010.61 1011.35 1011.98 1012.50 1012.92 1013.28 1013.64 1014.03 1014.47 1014.99 1015.54 1016.11 1016.65 1017.15 1017.59 1017.99 1018.37 1018.75 1019.15 1019.57 1020.00 1020.41 1020.76 1021.02 1021.17 1021.21 1021.17 1021.08 1020.99 1020.93 1020.93 1021.00 1021.13 1021.29 1021.45 1021.60 1021.71 1021.77 1021.80 1021.81 1021.80
1009.22 1009.96 1010.70 1011.37 1011.94 1012.41 1012.81 1013.18 1013.58 1014.04 1014.57 1015.16 1015.77 1016.38 1016.94 1017.44 1017.89 1018.29 1018.66 1019.05 1019.45 1019.87 1020.29 1020.68 1021.00 1021.22 1021.33 1021.35 1021.29 1021.21 1021.14 1021.12 1021.16 1021.27 1021.43 1021.61 1021.79 1021.94 1022.05 1022.11 1022.14 1022.15 1022.14
1009.22 1009.93 1010.62 1011.24 1011.77 1012.23 1012.64 1013.06 1013.53 1014.07 1014.68 1015.34 1016.00 1016.64 1017.21 1017.71 1018.14 1018.53 1018.90 1019.27 1019.67 1020.08 1020.47 1020.83 1021.11 1021.29 1021.37 1021.37 1021.31 1021.24 1021.21 1021.23 1021.31 1021.47 1021.66 1021.87 1022.06 1022.21 1022.32 1022.38 1022.41 1022.41 1022.41
1009.05 1009.72 1010.38 1010.97 1011.50 1011.98 1012.45 1012.94 1013.50 1014.13 1014.82 1015.53 1016.22 1016.87 1017.43 1017.91 1018.32 1018.69 1019.05 1019.41 1019.79 1020.18 1020.55 1020.87 1021.11 1021.26 1021.32 1021.30 1021.25 1021.20 1021.20 1021.26 1021.39 1021.58 1021.80 1022.03 1022.22 1022.37 1022.47 1022.52 1022.55 1022.56 1022.56
1008.76 1009.39 1010.02 1010.62 1011.17 1011.71 1012.25 1012.84 1013.49 1014.20 1014.95 1015.70 1016.41 1017.04 1017.58 1018.03 1018.42 1018.77 1019.11 1019.46 1019.83 1020.20 1020.55 1020.84 1021.06 1021.18 1021.21 1021.19 1021.14 1021.12 1021.14 1021.24 1021.40 1021.61 1021.84 1022.06 1022.24 1022.38 1022.47 1022.51 1022.54 1022.55 1022.57
1008.42 1009.02 1009.63 1010.24 1010.84 1011.45 1012.08 1012.77 1013.51 1014.28 1015.07 1015.83 1016.53 1017.13 1017.64 1018.06 1018.42 1018.76 1019.09 1019.44 1019.81 1020.18 1020.51 1020.79 1020.98 1021.08 1021.11 1021.08 1021.05 1021.04 1021.08 1021.19 1021.35 1021.56 1021.78 1021.97 1022.13 1022.25 1022.31 1022.35 1022.37 1022.40 1022.44
1008.12 1008.67 1009.27 1009.90 1010.55 1011.24 1011.96 1012.73 1013.53 1014.35 1015.15 1015.90 1016.57 1017.13 1017.60 1017.99 1018.34 1018.67 1019.02 1019.39 1019.76 1020.14 1020.47 1020.74 1020.93 1021.02 1021.05 1021.02 1020.99 1020.99 1021.03 1021.14 1021.28 1021.46 1021.64 1021.80 1021.92 1022.00 1022.05 1022.07 1022.09 1022.13 1022.18
1007.92 1008.43 1009.02 1009.66 1010.36 1011.10 1011.89 1012.71 1013.55 1014.39 1015.17 1015.89 1016.51 1017.03 1017.47 1017.85 1018.19 1018.54 1018.91 1019.31 1019.71 1020.10 1020.45 1020.73 1020.91 1021.01 1021.04 1021.02 1021.00 1020.99 1021.03 1021.11 1021.22 1021.35 1021.48 1021.58 1021.65 1021.70 1021.72 1021.73 1021.76 1021.81 1021.88
1007.85 1008.32 1008.89 1009.54 1010.26 1011.04 1011.87 1012.72 1013.57 1014.38 1015.14 1015.80 1016.38 1016.86 1017.27 1017.65 1018.01 1018.39 1018.79 1019.23 1019.66 1020.08 1020.44 1020.73 1020.92 1021.03 1021.07 1021.07 1021.05 1021.04 1021.06 1021.10 1021.17 1021.25 1021.31 1021.36 1021.39 1021.40 1021.40 1021.41 1021.45 1021.51 1021.59
1007.92 1008.34 1008.88 1009.53 1010.26 1011.06 1011.89 1012.74 1013.57 1014.35 1015.05 1015.66 1016.19 1016.64 1017.04 1017.43 1017.82 1018.23 1018.68 1019.14 1019.61 1020.04 1020.42 1020.71 1020.92 1021.04 1021.10 1021.11 1021.10 1021.09 1021.10 1021.11 1021.14 1021.16 1021.17 1021.17 1021.16 1021.15 1021.15 1021.17 1021.21 1021.29 1021.39
1008.07 1008.46 1008.98 1009.61 1010.34 1011.13 1011.95 1012.78 1013.57 1014.29 1014.94 1015.50 1015.99 1016.42 1016.82 1017.22 1017.64 1018.09 1018.57 1019.06 1019.54 1019.98 1020.35 1020.65 1020.87 1021.01 1021.08 1021.12 1021.13 1021.13 1021.13 1021.12 1021.11 1021.10 1021.07 1021.03 1021.00 1020.99 1020.99 1021.03 1021.10 1021.19 1021.30
1008.27 1008.63 1009.14 1009.76 1010.47 1011.24 1012.04 1012.83 1013.57 1014.24 1014.84 1015.36 1015.81 1016.23 1016.64 1017.06 1017.51 1017.98 1018.47 1018.97 1019.44 1019.86 1020.22 1020.51 1020.73 1020.88 1020.99 1021.05 1021.09 1021.12 1021.13 1021.12 1021.09 1021.05 1021.00 1020.95 1020.91 1020.91 1020.94 1021.00 1021.10 1021.21 1021.33
1008.44 1008.81 1009.30 1009.91 1010.61 1011.37 1012.13 1012.88 1013.57 1014.20 1014.75 1015.24 1015.68 1016.10 1016.52 1016.96 1017.42 1017.90 1018.39 1018.86 1019.30 1019.69 1020.02 1020.29 1020.50 1020.67 1020.80 1020.91 1020.99 1021.05 1021.08 1021.08 1021.06 1021.01 1020.95 1020.90 1020.88 1020.90 1020.96 1021.06 1021.19 1021.32 1021.45
1008.55 1008.93 1009.43 1010.04 1010.73 1011.46 1012.20 1012.91 1013.56 1014.15 1014.68 1015.15 1015.59 1016.02 1016.46 1016.91 1017.38 1017.85 1018.31 1018.74 1019.13 1019.46 1019.75 1019.99 1020.19 1020.37 1020.54 1020.69 1020.82 1020.93 1021.00 1021.03 1021.02 1020.98 1020.93 1020.89 1020.88 1020.93 1021.02 1021.15 1021.32 1021.48 1021.61
1008.57 1008.97 1009.48 1010.09 1010.77 1011.49 1012.20 1012.88 1013.50 1014.07 1014.58 1015.05 1015.50 1015.95 1016.40 1016.87 1017.33 1017.78 1018.20 1018.58 1018.91 1019.19 1019.42 1019.63 1019.83 1020.03 1020.23 1020.43 1020.62 1020.78 1020.90 1020.96 1020.97 1020.95 1020.91 1020.88 1020.90 1020.96 1021.08 1021.24 1021.43 1021.61 1021.76
1008.49 1008.91 1009.44 1010.05 1010.73 1011.42 1012.11 1012.76 1013.36 1013.91 1014.42 1014.90 1015.36 1015.83 1016.31 1016.78 1017.24 1017.67 1018.06 1018.38 1018.66 1018.88 1019.07 1019.26 1019.46 1019.68 1019.92 1020.18 1020.42 1020.63 1020.80 1020.89 1020.93 1020.92 1020.89 1020.87 1020.90 1020.97 1021.11 1021.29 1021.49 1021.69 1021.85
1008.35 1008.78 1009.31 1009.92 1010.58 1011.25 1011.91 1012.53 1013.11 1013.64 1014.15 1014.63 1015.12 1015.61 1016.11 1016.60 1017.06 1017.48 1017.84 1018.13 1018.36 1018.55 1018.72 1018.90 1019.11 1019.36 1019.64 1019.95 1020.25 1020.51 1020.71 1020.84 1020.90 1020.90 1020.88 1020.86 1020.88 1020.96 1021.09 1021.28 1021.49 1021.70 1021.87
Thickness
5775 5773 5766 5764 5762 5761 5760 5759 5757 5756 5755 5753 5752 5750 5748 5746 5744 5743 5741 5740 5738 5737 5735 5734 5733 5732 5731 5730 5729 5728 5727 5727 5726 5726 5725 5725 5724 5723 5722 5722 5722 5720 5718
5775 5769 5762 5761 5760 5758 5757 5756 5755 5753 5752 5751 5749 5747 5745 5744 5742 5740 5739 5737 5736 5734 5733 5731 5730 5729 5727 5726 5726 5725 5724 5723 5723 5723 5723 5722 5720 5719 5719 5718 5718 5716 5714
5770 5766 5759 5757 5756 5755 5754 5753 5752 5750 5749 5748 5746 5745 5743 5741 5739 5738 5736 5734 5733 5731 5730 5728 5727 5725 5724 5723 5722 5721 5720 5720 5720 5720 5721 5721 5718 5716 5715 5714 5713 5712 5711
5764 5761 5757 5753 5752 5751 5750 5749 5748 5747 5746 5745 5743 5742 5740 5738 5736 5735 5733 5731 5730 5728 5726 5725 5723 5722 5720 5720 5719 5718 5717 5716 5717 5719 5720 5718 5715 5712 5711 5710 5709 5708 5707
5757 5755 5752 5748 5747 5747 5746 5745 5744 5743 5742 5741 5740 5738 5737 5735 5733 5731 5730 5728 5726 5724 5722 5721 5719 5718 5717 5716 5715 5715 5714 5713 5714 5716 5716 5714 5712 5709 5708 5707 5706 5704 5703
5750 5749 5745 5743 5742 5742 5741 5741 5740 5739 5738 5737 5736 5735 5733 5731 5730 5728 5726 5724 5722 5720 5719 5717 5716 5715 5713 5713 5712 5711 5710 5710 5713 5713 5712 5711 5708 5705 5704 5703 5702 5701 5699
5743 5743 5739 5737 5737 5737 5736 5736 5736 5735 5734 5733 5732 5730 5729 5727 5726 5724 5721 5720 5718 5717 5715 5713 5712 5711 5710 5709 5708 5707 5707 5708 5710 5709 5708 5706 5703 5702 5701 5699 5698 5697 5695
5735 5736 5733 5731 5731 5731 5731 5731 5731 5730 5729 5728 5727 5726 5725 5723 5721 5719 5717 5715 5714 5713 5711 5710 5708 5707 5706 5705 5704 5704 5704 5705 5706 5705 5704 5702 5699 5698 5697 5696 5694 5693 5691
5728 5729 5728 5726 5725 5726 5726 5726 5726 5725 5725 5724 5723 5721 5720 5718 5716 5714 5712 5711 5710 5709 5707 5706 5705 5704 5703 5702 5701 5700 5700 5701 5703 5702 5700 5698 5695 5694 5693 5692 5691 5689 5687
5720 5723 5724 5723 5723 5722 5721 5720 5720 5720 5719 5719 5718 5716 5715 5713 5711 5709 5708 5707 5706 5704 5703 5702 5701 5700 5699 5698 5697 5697 5697 5698 5699 5698 5697 5694 5691 5691 5690 5688 5687 5685 5684
5710 5715 5718 5718 5719 5719 5718 5715 5715 5714 5714 5713 5712 5711 5709 5709 5707 5705 5704 5702 5701 5700 5699 5698 5697 5696 5695 5694 5694 5694 5695 5697 5697 5695 5693 5690 5688 5687 5686 5685 5683 5682 5680
5701 5707 5711 5713 5714 5714 5714 5712 5711 5710 5709 5709 5708 5707 5707 5706 5704 5702 5699 5698 5697 5696 5694 5693 5693 5692 5693 5693 5691 5691 5694 5694 5693 5692 5689 5686 5685 5684 5683 5681 5679 5678 5676
5697 5700 5704 5706 5708 5709 5709 5709 5709 5708 5706 5706 5705 5704 5703 5702 5699 5698 5695 5693 5692 5692 5692 5689 5689 5691 5691 5691 5691 5691 5691 5691 5691 5689 5686 5683 5682 5680 5679 5678 5676 5674 5672
5688 5692 5696 5700 5702 5704 5705 5705 5704 5703 5703 5702 5701 5699 5699 5698 5696 5695 5694 5692 5691 5691 5690 5689 5689 5688 5688 5688 5688 5688 5688 5687 5687 5685 5683 5680 5678 5677 5676 5674 5672 5670 5668
5680 5685 5689 5692 5696 5698 5699 5699 5699 5699 5698 5697 5696 5695 5695 5694 5693 5692 5691 5689 5689 5688 5687 5686 5686 5686 5685 5685 5685 5684 5684 5684 5682 5681 5680 5676 5675 5673 5672 5670 5669 5667 5665
5672 5677 5682 5685 5689 5691 5693 5694 5695 5694 5693 5693 5692 5691 5690 5690 5689 5688 5687 5685 5685 5684 5684 5683 5683 5681 5681 5681 5681 5681 5680 5680 5679 5678 5677 5674 5671 5670 5668 5666 5665 5663 5661
5665 5669 5673 5679 5681 5684 5687 5689 5690 5689 5688 5689 5688 5686 5686 5686 5684 5683 5683 5682 5681 5680 5679 5679 5678 5677 5677 5677 5677 5676 5676 5676 5675 5674 5672 5671 5669 5666 5664 5662 5661 5659 5657
5657 5662 5666 5673 5675 5678 5680 5682 5684 5685 5684 5684 5683 5682 5682 5681 5680 5679 5679 5678 5677 5676 5675 5675 5675 5674 5673 5673 5673 5673 5672 5671 5670 5670 5668 5666 5665 5663 5660 5658 5656 5654 5652
5651 5657 5661 5665 5669 5672 5673 5676 5678 5679 5679 5679 5679 5678 5677 5677 5676 5675 5675 5674 5673 5671 5671 5670 5670 5670 5669 5668 5668 5667 5667 5666 5665 5664 5663 5661 5659 5657 5655 5653 5650 5648 5646
5646 5651 5655 5658 5662 5664 5665 5667 5670 5672 5674 5674 5674 5674 5673 5672 5671 5671 5670 5669 5668 5667 5666 5665 5664 5664 5664 5663 5662 5661 5662 5661 5660 5658 5657 5656 5653 5651 5650 5648 5645 5643 5640
5641 5644 5648 5651 5655 5658 5659 5661 5663 5666 5667 5668 5669 5669 5668 5668 5667 5666 5665 5665 5664 5663 5662 5661 5660 5658 5658 5658 5656 5656 5657 5656 5655 5653 5651 5650 5648 5645 5643 5641 5639 5637 5635
5637 5640 5641 5644 5649 5653 5655 5658 5659 5661 5662 5663 5663 5663 5663 5663 5662 5661 5660 5660 5659 5658 5656 5656 5654 5653 5653 5652 5652 5650 5650 5651 5649 5646 5644 5642 5641 5638 5636 5634 5632 5629 5627
5631 5634 5637 5639 5643 5647 5650 5651 5651 5652 5653 5654 5656 5657 5658 5658 5658 5657 5656 5655 5654 5653 5652 5651 5650 5648 5647 5646 5647 5645 5643 5645 5645 5642 5639 5636 5634 5632 5630 5626 5624 5621 5619
5624 5629 5632 5635 5638 5642 5646 5648 5648 5647 5649 5652 5653 5653 5653 5652 5652 5652 5651 5650 5649 5649 5648 5646 5645 5644 5642 5641 5640 5639 5639 5639 5636 5636 5633 5630 5627 5624 5622 5618 5616 5613 5610
5617 5622 5626 5630 5634 5637 5641 5643 5643 5644 5646 5647 5646 5646 5647 5647 5646 5647 5646 5645 5644 5643 5643 5641 5639 5638 5638 5637 5635 5633 5631 5630 5629 5627 5627 5625 5620 5617 5614 5611 5608 5605 5601
5610 5614 5619 5622 5628 5631 5633 5636 5638 5638 5639 5639 5640 5640 5641 5641 5642 5642 5641 5640 5639 5638 5638 5636 5633 5632 5632 5630 5629 5627 5626 5624 5623 5620 5619 5618 5616 5612 5606 5602 5599 5595 5592